﻿BaseDateTime, LAT, LON, HEADING
2019-07-13 00:00:05.0000000,48.85028,-123.0559,134
2019-07-13 00:05:35.0000000,48.82925,-123.02457,141
2019-07-13 00:10:23.0000000,48.80707,-123.01422,180
2019-07-13 00:15:47.0000000,48.78393,-123.024,217
2019-07-13 00:20:12.0000000,48.7718,-123.0446,238
2019-07-13 00:25:25.0000000,48.76172,-123.0705,242
2019-07-13 00:35:53.0000000,48.7412,-123.12967,244
2019-07-13 00:40:47.0000000,48.7317,-123.15765,245
2019-07-13 00:45:00.0000000,48.72433,-123.18208,247
2019-07-13 01:00:00.0000000,48.69243,-123.25682,185
2019-07-13 01:05:29.0000000,48.67028,-123.25452,174
2019-07-13 01:10:05.0000000,48.65038,-123.2489,173
2019-07-13 01:15:11.0000000,48.62792,-123.243,169
2019-07-13 01:20:23.0000000,48.606,-123.23547,171
2019-07-13 01:25:35.0000000,48.58343,-123.22825,165
2019-07-13 01:30:05.0000000,48.56465,-123.22082,165
2019-07-13 01:35:53.0000000,48.54057,-123.21343,176
2019-07-13 01:45:55.0000000,48.50102,-123.20908,175
2019-07-13 01:55:27.0000000,48.46318,-123.20465,175
2019-07-13 02:00:02.0000000,48.44345,-123.20178,179
2019-07-13 02:05:21.0000000,48.42063,-123.20437,215
2019-07-13 02:10:45.0000000,48.40572,-123.22943,240
2019-07-13 02:15:20.0000000,48.39667,-123.25542,246
2019-07-13 02:20:57.0000000,48.38683,-123.289,244
2019-07-13 02:30:31.0000000,48.38172,-123.34245,269
2019-07-13 02:35:19.0000000,48.38222,-123.363,270
2019-07-13 02:40:30.0000000,48.38853,-123.38138,300
2019-07-13 02:55:42.0000000,48.35673,-123.42238,211
2019-07-13 03:00:00.0000000,48.34125,-123.4347,207
2019-07-13 03:05:30.0000000,48.32025,-123.45068,205
2019-07-13 03:10:00.0000000,48.30243,-123.46385,210
2019-07-13 03:15:24.0000000,48.2804,-123.48025,212
2019-07-13 03:20:42.0000000,48.25993,-123.49925,244
2019-07-13 03:30:00.0000000,48.2555,-123.56077,275
2019-07-13 03:35:00.0000000,48.25868,-123.5962,283
2019-07-13 03:45:17.0000000,48.26785,-123.66988,278
2019-07-13 03:55:43.0000000,48.27463,-123.74252,276
2019-07-13 04:00:00.0000000,48.2768,-123.77148,277
2019-07-13 04:05:42.0000000,48.27905,-123.80952,281
2019-07-13 04:10:36.0000000,48.28222,-123.84163,283
2019-07-13 04:15:30.0000000,48.28512,-123.87378,282
2019-07-13 04:20:30.0000000,48.28807,-123.90668,283
2019-07-13 04:25:54.0000000,48.29272,-123.94153,294
2019-07-13 04:30:54.0000000,48.30073,-123.97228,297
2019-07-13 04:35:54.0000000,48.30935,-124.00282,295
2019-07-13 04:45:42.0000000,48.3272,-124.06065,298
2019-07-13 04:50:31.0000000,48.33558,-124.08915,295
2019-07-13 04:55:55.0000000,48.34453,-124.12178,293
2019-07-13 05:00:00.0000000,48.35108,-124.14698,295
2019-07-13 05:05:36.0000000,48.36052,-124.18145,293
2019-07-13 05:10:54.0000000,48.36955,-124.21385,296
2019-07-13 05:15:43.0000000,48.37803,-124.24328,295
2019-07-13 05:20:18.0000000,48.38585,-124.27157,293
2019-07-13 05:25:54.0000000,48.3953,-124.30632,294
2019-07-13 05:30:00.0000000,48.40237,-124.3317,295
2019-07-13 05:35:24.0000000,48.41135,-124.36503,295
2019-07-13 05:40:12.0000000,48.4196,-124.39415,295
2019-07-13 05:45:18.0000000,48.42815,-124.42507,295
2019-07-13 05:50:54.0000000,48.4378,-124.45868,295
2019-07-13 05:55:30.0000000,48.44578,-124.48608,295
2019-07-13 06:00:00.0000000,48.45353,-124.5129,295
2019-07-13 06:05:36.0000000,48.4632,-124.54638,294
2019-07-13 06:10:13.0000000,48.471,-124.57397,291
2019-07-13 06:15:42.0000000,48.48002,-124.60785,294
2019-07-13 06:20:12.0000000,48.48798,-124.63543,293
2019-07-13 06:25:00.0000000,48.49633,-124.6651,293
2019-07-13 06:30:54.0000000,48.5067,-124.70117,293
2019-07-13 06:45:24.0000000,48.51447,-124.79227,270
2019-07-13 06:50:30.0000000,48.51445,-124.82407,272
2019-07-13 06:55:30.0000000,48.515,-124.85257,272
2019-07-13 07:00:00.0000000,48.51507,-124.87777,269
2019-07-13 07:00:00.0000000,48.51507,-124.87777,269
2019-07-13 07:10:31.0000000,48.51192,-124.93852,265
2019-07-13 07:15:13.0000000,48.51005,-124.9669,260
2019-07-13 07:20:36.0000000,48.50653,-125.0008,260
2019-07-13 07:30:00.0000000,48.483,-125.04642,219
2019-07-13 07:40:12.0000000,48.44708,-125.08648,217
2019-07-13 08:00:00.0000000,48.37453,-125.14515,195
2019-07-13 08:05:30.0000000,48.35195,-125.15438,198
2019-07-13 08:10:48.0000000,48.32955,-125.16287,198
2019-07-13 08:15:13.0000000,48.311,-125.17098,202
2019-07-13 08:20:00.0000000,48.29088,-125.17963,201
2019-07-13 08:25:18.0000000,48.26847,-125.1892,201
2019-07-13 08:40:48.0000000,48.20158,-125.21655,199
2019-07-13 08:55:12.0000000,48.13928,-125.24332,200
2019-07-13 09:00:00.0000000,48.11838,-125.2523,199
2019-07-13 09:05:30.0000000,48.09462,-125.26283,201
2019-07-13 09:10:36.0000000,48.07245,-125.2724,197
2019-07-13 09:15:06.0000000,48.05283,-125.2802,198
2019-07-13 09:20:49.0000000,48.0284,-125.2914,205
2019-07-13 09:25:00.0000000,48.01142,-125.30283,209
2019-07-13 09:30:06.0000000,47.99112,-125.31633,192
2019-07-13 09:40:42.0000000,47.94408,-125.32502,190
2019-07-13 10:00:06.0000000,47.857,-125.3298,182
2019-07-13 10:05:42.0000000,47.83162,-125.32903,182
2019-07-13 10:10:25.0000000,47.81015,-125.32857,182
2019-07-13 10:15:07.0000000,47.78862,-125.3284,182
2019-07-13 10:25:24.0000000,47.74158,-125.32813,181
2019-07-13 10:30:06.0000000,47.72038,-125.32767,181
2019-07-13 10:40:12.0000000,47.67402,-125.32648,181
2019-07-13 11:00:01.0000000,47.58242,-125.32405,180
2019-07-13 11:05:36.0000000,47.55665,-125.32323,180
2019-07-13 11:10:00.0000000,47.5369,-125.32248,179
2019-07-13 11:15:36.0000000,47.51187,-125.32128,180
2019-07-13 11:20:54.0000000,47.48808,-125.32028,180
2019-07-13 11:25:43.0000000,47.46672,-125.31945,180
2019-07-13 11:30:07.0000000,47.44725,-125.31857,180
2019-07-13 11:35:42.0000000,47.42248,-125.3173,180
2019-07-13 11:40:06.0000000,47.40313,-125.31633,180
2019-07-13 11:50:42.0000000,47.35643,-125.31335,181
2019-07-13 12:00:06.0000000,47.31523,-125.31185,181
2019-07-13 12:05:48.0000000,47.2903,-125.31113,181
2019-07-13 12:10:06.0000000,47.27152,-125.31065,181
2019-07-13 12:20:36.0000000,47.22487,-125.30968,181
2019-07-13 12:30:00.0000000,47.18228,-125.30887,181
2019-07-13 12:35:06.0000000,47.159,-125.30832,181
2019-07-13 12:40:25.0000000,47.13468,-125.30797,181
2019-07-13 12:50:48.0000000,47.08728,-125.3065,179
2019-07-13 12:55:31.0000000,47.06598,-125.30582,181
2019-07-13 13:00:07.0000000,47.04533,-125.30528,180
2019-07-13 13:10:19.0000000,46.99918,-125.30385,179
2019-07-13 13:25:25.0000000,46.93135,-125.2998,179
2019-07-13 13:50:13.0000000,46.82025,-125.29505,178
2019-07-13 14:00:18.0000000,46.775,-125.2932,179
2019-07-13 14:05:55.0000000,46.74983,-125.2924,178
2019-07-13 14:10:54.0000000,46.72737,-125.29163,178
2019-07-13 14:20:07.0000000,46.68595,-125.28993,179
2019-07-13 14:25:12.0000000,46.66352,-125.28847,180
2019-07-13 14:30:06.0000000,46.64205,-125.28707,179
2019-07-13 14:35:12.0000000,46.6196,-125.28617,181
2019-07-13 14:40:48.0000000,46.59493,-125.2856,181
2019-07-13 14:45:06.0000000,46.57603,-125.28525,181
2019-07-13 15:00:01.0000000,46.51022,-125.28472,181
2019-07-13 15:05:31.0000000,46.4859,-125.28477,181
2019-07-13 15:10:07.0000000,46.46568,-125.28402,177
2019-07-13 15:15:42.0000000,46.4412,-125.28187,177
2019-07-13 15:20:25.0000000,46.42067,-125.28025,177
2019-07-13 15:25:13.0000000,46.39988,-125.2786,177
2019-07-13 15:45:19.0000000,46.31412,-125.27103,177
2019-07-13 15:50:01.0000000,46.29405,-125.26927,177
2019-07-13 15:55:54.0000000,46.26917,-125.26783,181
2019-07-13 16:00:01.0000000,46.25182,-125.26763,180
2019-07-13 16:05:36.0000000,46.22798,-125.26703,180
2019-07-13 16:10:18.0000000,46.20805,-125.26648,182
2019-07-13 16:20:25.0000000,46.16552,-125.26677,182
2019-07-13 16:25:19.0000000,46.14487,-125.26692,181
2019-07-13 16:30:01.0000000,46.12498,-125.26697,181
2019-07-13 16:45:48.0000000,46.05772,-125.26613,180
2019-07-13 17:00:13.0000000,45.99577,-125.26473,180
2019-07-13 17:10:42.0000000,45.95027,-125.2636,180
2019-07-13 17:15:43.0000000,45.92868,-125.26288,180
2019-07-13 17:20:42.0000000,45.90723,-125.2624,180
2019-07-13 17:25:55.0000000,45.88515,-125.26193,180
2019-07-13 17:30:00.0000000,45.8676,-125.26157,180
2019-07-13 17:35:37.0000000,45.84355,-125.26107,180
2019-07-13 17:40:00.0000000,45.8247,-125.26072,180
2019-07-13 17:45:13.0000000,45.80223,-125.26013,180
2019-07-13 17:55:55.0000000,45.7559,-125.26005,180
2019-07-13 18:00:13.0000000,45.73728,-125.26032,180
2019-07-13 18:05:55.0000000,45.71262,-125.26055,181
2019-07-13 18:10:13.0000000,45.69403,-125.26052,180
2019-07-13 18:15:31.0000000,45.67112,-125.2599,179
2019-07-13 18:20:07.0000000,45.65122,-125.25908,178
2019-07-13 18:30:01.0000000,45.60833,-125.25688,178
2019-07-13 18:35:43.0000000,45.58362,-125.25542,178
2019-07-13 18:40:25.0000000,45.56342,-125.25395,178
2019-07-13 18:55:25.0000000,45.49902,-125.24943,178
2019-07-13 19:00:00.0000000,45.47935,-125.24793,178
2019-07-13 19:05:37.0000000,45.4553,-125.2462,178
2019-07-13 19:10:07.0000000,45.43588,-125.24482,178
2019-07-13 19:15:43.0000000,45.41178,-125.24342,179
2019-07-13 19:20:07.0000000,45.39283,-125.24282,180
2019-07-13 19:30:01.0000000,45.35013,-125.24228,180
2019-07-13 19:35:37.0000000,45.32593,-125.24197,180
2019-07-13 19:55:43.0000000,45.23872,-125.23975,179
2019-07-13 20:00:07.0000000,45.2197,-125.23907,179
2019-07-13 20:05:49.0000000,45.19522,-125.23833,179
2019-07-13 20:10:08.0000000,45.1767,-125.23757,179
2019-07-13 20:15:43.0000000,45.15275,-125.23667,179
2019-07-13 20:20:07.0000000,45.13393,-125.23605,179
2019-07-13 20:35:01.0000000,45.07023,-125.23322,179
2019-07-13 20:40:13.0000000,45.0476,-125.23198,179
2019-07-13 20:45:32.0000000,45.02415,-125.23067,179
2019-07-13 20:55:08.0000000,44.98147,-125.229,179
2019-07-13 21:05:31.0000000,44.93517,-125.22837,179
2019-07-13 21:10:13.0000000,44.9145,-125.2283,179
2019-07-13 21:20:31.0000000,44.86927,-125.22848,179
2019-07-13 21:25:26.0000000,44.84795,-125.22833,179
2019-07-13 21:30:19.0000000,44.82667,-125.22813,179
2019-07-13 21:35:49.0000000,44.80253,-125.22793,179
2019-07-13 22:00:08.0000000,44.69717,-125.2256,178
2019-07-13 22:05:08.0000000,44.67553,-125.22455,178
2019-07-13 22:10:38.0000000,44.65175,-125.22368,178
2019-07-13 22:15:19.0000000,44.63165,-125.22282,178
2019-07-13 22:30:26.0000000,44.56717,-125.22077,178
2019-07-13 22:40:14.0000000,44.5251,-125.21987,178
2019-07-13 23:00:02.0000000,44.44012,-125.21752,178
2019-07-13 23:05:37.0000000,44.41602,-125.2169,178
2019-07-13 23:10:08.0000000,44.39658,-125.21628,178
2019-07-13 23:15:49.0000000,44.37198,-125.21517,178
2019-07-13 23:20:31.0000000,44.35145,-125.21395,179
2019-07-13 23:25:43.0000000,44.32875,-125.21227,179
2019-07-13 23:30:02.0000000,44.30995,-125.21058,178
2019-07-13 23:35:01.0000000,44.28835,-125.20838,178
2019-07-13 23:40:07.0000000,44.26615,-125.2061,178
2019-07-13 23:45:13.0000000,44.24393,-125.20348,178
2019-07-13 23:55:19.0000000,44.19945,-125.19872,179
2019-07-14 00:00:02.0000000,44.17833,-125.19648,177
2019-07-14 00:05:44.0000000,44.15292,-125.19427,181
2019-07-14 00:10:31.0000000,44.13163,-125.1936,181
2019-07-14 00:15:19.0000000,44.11028,-125.19292,181
2019-07-14 00:20:50.0000000,44.08567,-125.19233,181
2019-07-14 00:25:49.0000000,44.06347,-125.19187,182
2019-07-14 00:30:38.0000000,44.04215,-125.19205,183
2019-07-14 00:35:38.0000000,44.02013,-125.19267,183
2019-07-14 00:40:31.0000000,43.99862,-125.19322,183
2019-07-14 01:00:02.0000000,43.91263,-125.19595,181
2019-07-14 01:05:31.0000000,43.88823,-125.19577,181
2019-07-14 01:10:08.0000000,43.8679,-125.19588,180
2019-07-14 01:20:26.0000000,43.82167,-125.1963,182
2019-07-14 01:25:31.0000000,43.7988,-125.19537,179
2019-07-14 01:30:02.0000000,43.77847,-125.19412,180
2019-07-14 01:35:08.0000000,43.7555,-125.19237,179
2019-07-14 01:40:55.0000000,43.72945,-125.19027,179
2019-07-14 01:45:25.0000000,43.70917,-125.1887,180
2019-07-14 01:50:32.0000000,43.68613,-125.18693,179
2019-07-14 01:55:20.0000000,43.66442,-125.1854,179
2019-07-14 02:00:01.0000000,43.64313,-125.1846,180
2019-07-14 02:05:38.0000000,43.61792,-125.184,181
2019-07-14 02:10:07.0000000,43.5978,-125.184,181
2019-07-14 02:15:38.0000000,43.5732,-125.18413,182
2019-07-14 02:20:56.0000000,43.54947,-125.18448,181
2019-07-14 02:30:26.0000000,43.50747,-125.18495,179
2019-07-14 02:35:02.0000000,43.48733,-125.18455,179
2019-07-14 02:40:07.0000000,43.4651,-125.18383,178
2019-07-14 03:00:07.0000000,43.37655,-125.18197,178
2019-07-14 03:05:38.0000000,43.35198,-125.18145,178
2019-07-14 03:10:37.0000000,43.32967,-125.18102,178
2019-07-14 03:25:26.0000000,43.26423,-125.18007,178
2019-07-14 03:40:32.0000000,43.19758,-125.17845,178
2019-07-14 03:45:25.0000000,43.17632,-125.17797,178
2019-07-14 03:50:37.0000000,43.15378,-125.17743,177
2019-07-14 04:00:02.0000000,43.1129,-125.17588,179
2019-07-14 04:05:56.0000000,43.08762,-125.17453,178
2019-07-14 04:15:02.0000000,43.0487,-125.17212,178
2019-07-14 04:20:01.0000000,43.0272,-125.1711,178
2019-07-14 04:30:02.0000000,42.98323,-125.16912,178
2019-07-14 04:35:14.0000000,42.96062,-125.16855,178
2019-07-14 04:45:37.0000000,42.91568,-125.16752,178
2019-07-14 04:50:25.0000000,42.89515,-125.16685,178
2019-07-14 04:55:37.0000000,42.8729,-125.16617,179
2019-07-14 05:00:01.0000000,42.85417,-125.16548,178
2019-07-14 05:05:32.0000000,42.83065,-125.16513,178
2019-07-14 05:10:07.0000000,42.81097,-125.16475,178
2019-07-14 05:15:13.0000000,42.7891,-125.16418,177
2019-07-14 05:20:37.0000000,42.76597,-125.16372,179
2019-07-14 05:25:01.0000000,42.74722,-125.1632,178
2019-07-14 05:30:02.0000000,42.726,-125.16263,179
2019-07-14 05:40:43.0000000,42.68103,-125.16075,178
2019-07-14 05:45:55.0000000,42.65913,-125.15907,178
2019-07-14 05:55:20.0000000,42.61983,-125.15548,178
2019-07-14 06:00:01.0000000,42.60042,-125.1533,178
2019-07-14 06:05:55.0000000,42.57615,-125.14997,179
2019-07-14 06:10:26.0000000,42.55772,-125.1477,179
2019-07-14 06:25:19.0000000,42.49642,-125.1419,182
2019-07-14 06:35:56.0000000,42.45243,-125.13927,181
2019-07-14 06:40:25.0000000,42.43412,-125.13857,181
2019-07-14 06:45:20.0000000,42.41405,-125.13782,181
2019-07-14 06:50:56.0000000,42.3911,-125.13727,181
2019-07-14 06:55:25.0000000,42.3727,-125.13712,181
2019-07-14 07:00:02.0000000,42.35372,-125.13717,181
2019-07-14 07:05:38.0000000,42.3306,-125.13725,181
2019-07-14 07:10:14.0000000,42.31142,-125.1375,181
2019-07-14 07:15:50.0000000,42.2882,-125.13797,181
2019-07-14 07:20:31.0000000,42.2687,-125.13833,182
2019-07-14 07:25:01.0000000,42.2499,-125.13895,181
2019-07-14 07:30:20.0000000,42.2275,-125.13962,180
2019-07-14 07:40:43.0000000,42.18335,-125.14067,179
2019-07-14 07:50:19.0000000,42.14232,-125.1415,178
2019-07-14 07:55:20.0000000,42.12087,-125.14155,177
2019-07-14 08:00:01.0000000,42.10082,-125.14122,177
2019-07-14 08:05:31.0000000,42.07725,-125.14088,176
2019-07-14 08:10:38.0000000,42.05533,-125.14013,176
2019-07-14 08:15:38.0000000,42.034,-125.13937,175
2019-07-14 08:40:43.0000000,41.92757,-125.13313,176
2019-07-14 08:45:56.0000000,41.90515,-125.13138,176
2019-07-14 08:50:01.0000000,41.88735,-125.12978,176
2019-07-14 08:55:43.0000000,41.86218,-125.12733,176
2019-07-14 09:00:01.0000000,41.84303,-125.12533,176
2019-07-14 09:05:44.0000000,41.81732,-125.12258,176
2019-07-14 09:10:55.0000000,41.79392,-125.12012,176
2019-07-14 09:20:01.0000000,41.75273,-125.11578,178
2019-07-14 09:25:37.0000000,41.72747,-125.11627,183
2019-07-14 09:45:02.0000000,41.6388,-125.11868,182
2019-07-14 09:55:37.0000000,41.59092,-125.11863,181
2019-07-14 10:00:01.0000000,41.57128,-125.11855,181
2019-07-14 10:05:32.0000000,41.5466,-125.11838,180
2019-07-14 10:10:13.0000000,41.52558,-125.11773,179
2019-07-14 10:15:50.0000000,41.50003,-125.1169,180
2019-07-14 10:20:32.0000000,41.47862,-125.11623,180
2019-07-14 10:25:20.0000000,41.45675,-125.1156,180
2019-07-14 10:30:56.0000000,41.43117,-125.11507,180
2019-07-14 10:40:44.0000000,41.38692,-125.11398,180
2019-07-14 10:45:08.0000000,41.367,-125.11347,181
2019-07-14 10:50:01.0000000,41.34497,-125.11293,179
2019-07-14 11:00:02.0000000,41.29975,-125.11212,180
2019-07-14 11:05:44.0000000,41.27407,-125.11157,180
2019-07-14 11:10:31.0000000,41.25235,-125.11117,180
2019-07-14 11:15:02.0000000,41.23195,-125.11075,180
2019-07-14 11:20:07.0000000,41.20903,-125.11033,180
2019-07-14 11:25:44.0000000,41.18385,-125.10995,180
2019-07-14 11:30:01.0000000,41.16455,-125.10967,180
2019-07-14 11:45:07.0000000,41.09702,-125.10897,180
2019-07-14 11:55:13.0000000,41.05202,-125.10832,180
2019-07-14 12:00:02.0000000,41.03058,-125.10807,180
2019-07-14 12:05:37.0000000,41.00568,-125.10677,176
2019-07-14 12:10:14.0000000,40.98493,-125.10475,176
2019-07-14 12:15:43.0000000,40.9602,-125.10263,176
2019-07-14 12:20:07.0000000,40.94028,-125.10105,176
2019-07-14 12:25:26.0000000,40.9161,-125.0995,177
2019-07-14 12:30:43.0000000,40.8918,-125.09867,177
2019-07-14 12:40:02.0000000,40.84853,-125.09713,178
2019-07-14 13:00:01.0000000,40.75437,-125.0951,177
2019-07-14 13:05:26.0000000,40.729,-125.09415,177
2019-07-14 13:10:14.0000000,40.70622,-125.09317,177
2019-07-14 13:25:56.0000000,40.63348,-125.09018,176
2019-07-14 13:30:01.0000000,40.615,-125.08983,177
2019-07-14 13:35:26.0000000,40.59068,-125.08903,177
2019-07-14 13:40:43.0000000,40.56762,-125.08728,178
2019-07-14 13:50:13.0000000,40.52687,-125.08338,178
2019-07-14 13:55:37.0000000,40.50377,-125.08103,178
2019-07-14 14:00:02.0000000,40.48492,-125.07993,182
2019-07-14 14:05:50.0000000,40.45998,-125.07875,182
2019-07-14 14:10:37.0000000,40.43922,-125.07802,183
2019-07-14 14:15:55.0000000,40.41617,-125.07415,168
2019-07-14 14:25:25.0000000,40.37593,-125.05947,168
2019-07-14 14:35:31.0000000,40.33377,-125.04277,166
2019-07-14 14:40:38.0000000,40.31235,-125.03425,164
2019-07-14 14:45:01.0000000,40.29435,-125.02637,163
2019-07-14 14:55:37.0000000,40.25068,-125.00555,160
2019-07-14 15:00:01.0000000,40.23253,-124.99712,161
2019-07-14 15:05:44.0000000,40.20887,-124.98645,162
2019-07-14 15:10:20.0000000,40.18987,-124.97817,161
2019-07-14 15:15:14.0000000,40.17013,-124.96888,161
2019-07-14 15:20:07.0000000,40.15052,-124.9596,161
2019-07-14 15:30:37.0000000,40.10818,-124.93915,161
2019-07-14 15:35:31.0000000,40.08813,-124.92938,161
2019-07-14 15:40:38.0000000,40.06697,-124.91902,161
2019-07-14 15:45:49.0000000,40.04547,-124.90827,160
2019-07-14 15:50:56.0000000,40.0239,-124.89757,161
2019-07-14 15:55:02.0000000,40.00643,-124.8889,161
2019-07-14 16:00:02.0000000,39.98505,-124.87827,161
2019-07-14 16:05:32.0000000,39.96152,-124.86687,161
2019-07-14 16:10:56.0000000,39.93823,-124.85575,161
2019-07-14 16:15:50.0000000,39.91712,-124.84585,161
2019-07-14 16:20:32.0000000,39.89688,-124.83633,161
2019-07-14 16:25:02.0000000,39.87747,-124.82742,162
2019-07-14 16:30:01.0000000,39.85585,-124.8176,161
2019-07-14 16:35:26.0000000,39.83223,-124.80678,161
2019-07-14 16:45:44.0000000,39.78753,-124.7858,161
2019-07-14 16:50:49.0000000,39.76555,-124.77558,161
2019-07-14 16:55:44.0000000,39.74443,-124.76572,161
2019-07-14 17:00:01.0000000,39.72592,-124.75707,161
2019-07-14 17:05:31.0000000,39.70212,-124.74607,161
2019-07-14 17:10:25.0000000,39.68072,-124.73622,161
2019-07-14 17:15:50.0000000,39.6569,-124.7253,160
2019-07-14 17:20:32.0000000,39.63628,-124.71537,160
2019-07-14 17:25:31.0000000,39.61437,-124.70475,160
2019-07-14 17:30:50.0000000,39.59038,-124.69343,160
2019-07-14 17:40:43.0000000,39.54505,-124.67167,160
2019-07-14 17:45:01.0000000,39.52557,-124.66215,159
2019-07-14 17:55:31.0000000,39.4779,-124.63827,160
2019-07-14 18:00:02.0000000,39.4573,-124.62798,160
2019-07-14 18:05:38.0000000,39.43153,-124.6155,160
2019-07-14 18:10:38.0000000,39.40845,-124.60457,160
2019-07-14 18:15:13.0000000,39.38757,-124.59453,159
2019-07-14 18:35:01.0000000,39.29885,-124.55188,160
2019-07-14 18:55:01.0000000,39.2114,-124.5094,161
2019-07-14 19:00:02.0000000,39.18885,-124.49888,160
2019-07-14 19:05:32.0000000,39.16425,-124.48758,162
2019-07-14 19:10:31.0000000,39.14193,-124.47787,161
2019-07-14 19:25:25.0000000,39.07633,-124.44892,160
2019-07-14 19:30:49.0000000,39.05288,-124.43783,161
2019-07-14 19:35:43.0000000,39.03182,-124.42823,161
2019-07-14 19:40:26.0000000,39.0117,-124.41925,161
2019-07-14 19:45:07.0000000,38.99183,-124.41025,160
2019-07-14 19:50:37.0000000,38.96842,-124.3996,160
2019-07-14 19:55:31.0000000,38.94767,-124.39048,160
2019-07-14 20:00:01.0000000,38.92837,-124.38225,160
2019-07-14 20:05:37.0000000,38.90413,-124.372,159
2019-07-14 20:10:31.0000000,38.88317,-124.36228,156
2019-07-14 20:15:32.0000000,38.86262,-124.35137,158
2019-07-14 20:20:07.0000000,38.84387,-124.34215,158
2019-07-14 20:25:44.0000000,38.82085,-124.3316,157
2019-07-14 20:35:49.0000000,38.7799,-124.31152,159
2019-07-14 20:40:49.0000000,38.75958,-124.30153,160
2019-07-14 20:45:55.0000000,38.73887,-124.29135,161
2019-07-14 20:50:37.0000000,38.71967,-124.28237,161
2019-07-14 20:55:38.0000000,38.69905,-124.2728,161
2019-07-14 21:00:01.0000000,38.68077,-124.26442,161
2019-07-14 21:05:43.0000000,38.65697,-124.25327,160
2019-07-14 21:10:43.0000000,38.63627,-124.24332,162
2019-07-14 21:15:38.0000000,38.61605,-124.23375,164
2019-07-14 21:20:55.0000000,38.5945,-124.2241,164
2019-07-14 21:25:50.0000000,38.57458,-124.2152,163
2019-07-14 21:30:38.0000000,38.55518,-124.20648,163
2019-07-14 21:35:25.0000000,38.53597,-124.19797,162
2019-07-14 21:40:25.0000000,38.51602,-124.18883,162
2019-07-14 21:45:38.0000000,38.49515,-124.17957,161
2019-07-14 21:50:02.0000000,38.47762,-124.17138,161
2019-07-14 21:55:20.0000000,38.4566,-124.16212,162
2019-07-14 22:00:02.0000000,38.43813,-124.15373,160
2019-07-14 22:05:50.0000000,38.41552,-124.1432,158
2019-07-14 22:10:32.0000000,38.39735,-124.13477,158
2019-07-14 22:15:08.0000000,38.37927,-124.12655,159
2019-07-14 22:20:20.0000000,38.35865,-124.11738,159
2019-07-14 22:35:26.0000000,38.29893,-124.08993,157
2019-07-14 22:40:50.0000000,38.27775,-124.07985,157
2019-07-14 22:50:26.0000000,38.23983,-124.0614,159
2019-07-14 23:00:01.0000000,38.20055,-124.04208,160
2019-07-14 23:05:38.0000000,38.17693,-124.03085,159
2019-07-14 23:10:14.0000000,38.1576,-124.02158,159
2019-07-14 23:15:20.0000000,38.13608,-124.01078,162
2019-07-14 23:25:26.0000000,38.09213,-123.99008,162
2019-07-14 23:35:14.0000000,38.04952,-123.97067,162
2019-07-14 23:40:20.0000000,38.02747,-123.96102,162
2019-07-14 23:45:44.0000000,38.00467,-123.95112,162
2019-07-14 23:50:02.0000000,37.98672,-123.94358,162
2019-07-14 23:55:02.0000000,37.96627,-123.9345,160
2019-07-15 00:00:02.0000000,37.94637,-123.92485,161
2019-07-15 00:05:27.0000000,37.9247,-123.91483,161
2019-07-15 00:10:20.0000000,37.90503,-123.90607,161
2019-07-15 00:15:14.0000000,37.88522,-123.89743,161
2019-07-15 00:20:01.0000000,37.86588,-123.88905,160
2019-07-15 00:25:32.0000000,37.84335,-123.87977,160
2019-07-15 00:35:38.0000000,37.80143,-123.86205,158
2019-07-15 00:40:50.0000000,37.7804,-123.85215,160
2019-07-15 00:50:38.0000000,37.74202,-123.83193,149
2019-07-15 00:55:38.0000000,37.724,-123.81735,149
2019-07-15 01:00:03.0000000,37.70787,-123.80452,150
2019-07-15 01:05:33.0000000,37.68753,-123.78853,148
2019-07-15 01:10:08.0000000,37.67083,-123.77515,149
2019-07-15 01:15:02.0000000,37.65315,-123.7609,149
2019-07-15 01:25:02.0000000,37.6171,-123.73272,150
2019-07-15 01:30:56.0000000,37.5959,-123.7163,150
2019-07-15 01:40:26.0000000,37.56193,-123.69037,149
2019-07-15 01:45:32.0000000,37.54358,-123.67642,149
2019-07-15 01:50:26.0000000,37.52597,-123.66298,149
2019-07-15 02:00:03.0000000,37.49143,-123.6372,150
2019-07-15 02:05:38.0000000,37.4711,-123.62238,150
2019-07-15 02:10:14.0000000,37.45415,-123.61023,150
2019-07-15 02:15:32.0000000,37.43458,-123.59625,150
2019-07-15 02:20:14.0000000,37.41732,-123.58392,150
2019-07-15 02:25:26.0000000,37.39842,-123.57018,149
2019-07-15 02:30:26.0000000,37.38027,-123.55648,150